DW4326 Weather Reports


time (UTC)temp
F
wind
direction
speed
knots
gust
knots
rain 1hr
in
rain 24hr
in
rain mn
in
humidity
%
barometer
mb
20260902175436 66 201 0.9 8.7 0.00 0.05 0.00 83 1020.2
20260902173247 66 195 2.6 8.7 0.00 0.05 0.00 82 1020.0
20260902171747 66 184 1.7 9.6 0.00 0.05 0.00 82 1020.1
20260902170246 66 219 2.6 8.7 0.00 0.05 0.00 82 1020.2
20260902164747 66 194 1.7 6.1 0.00 0.05 0.00 82 1020.4
20260902163246 65 196 1.7 7.0 0.00 0.05 0.00 82 1020.5
20260902161746 65 178 0.0 0.0 0.00 0.05 0.00 82 1020.6
20260902160244 66 199 0.0 0.0 0.00 0.05 0.00 81 1020.6
20260902154744 65 196 0.0 0.0 0.00 0.05 0.00 84 1020.8
20260902153244 64 206 0.0 0.0 0.00 0.05 0.00 82 1020.9
20260902151745 64 213 0.0 0.0 0.00 0.05 0.00 82 1021.2
20260902150244 64 193 0.0 0.0 0.00 0.05 0.00 83 1021.2
20260902144741 64 195 0.0 0.0 0.00 0.05 0.00 87 1021.1
20260902143241 64 190 0.0 0.0 0.00 0.05 0.00 87 1021.0
20260902141738 64 189 0.0 0.0 0.00 0.05 0.00 88 1020.9
20260902140933 63 153 0.0 0.0 0.00 0.05 0.00 90 1020.8
20260902134735 63 184 0.0 0.0 0.00 0.06 0.00 91 1020.8
20260902133233 62 201 0.0 0.0 0.00 0.06 0.00 91 1020.7
20260902131732 62 183 0.0 0.0 0.00 0.07 0.00 92 1020.4
20260902130230 62 205 0.0 0.0 0.00 0.07 0.00 94 1020.4
20260902124724 61 166 0.0 0.0 0.00 0.08 0.00 95 1020.6
20260902123223 60 192 0.0 0.0 0.00 0.08 0.00 96 1020.6
20260902122419 60 198 0.0 0.0 0.00 0.11 0.00 97 1020.6
20260902121621 60 215 0.0 0.0 0.00 0.14 0.00 98 1020.6
20260902114723 60 182 0.0 0.0 0.00 0.18 0.00 98 1020.6
20260902111722 59 196 0.0 0.0 0.00 0.26 0.00 98 1020.8
20260902110224 60 196 0.0 0.9 0.00 0.29 0.00 98 1020.8
20260902104722 60 196 0.0 0.0 0.00 0.32 0.00 98 1020.8
20260902103221 60 196 0.0 0.0 0.00 0.34 0.00 98 1020.6
20260902101719 60 196 0.0 0.0 0.00 0.36 0.00 98 1020.6
20260902100222 60 196 0.0 0.0 0.00 0.37 0.00 98 1020.3
20260902094720 60 196 0.0 0.0 0.00 0.37 0.00 98 1020.4
20260902093219 60 196 0.0 0.0 0.00 0.37 0.00 98 1020.2
20260902091719 60 196 0.0 0.0 0.00 0.37 0.00 98 1020.1
20260902090220 60 196 0.0 0.0 0.00 0.37 0.00 98 1020.0
20260902084718 60 195 0.0 0.0 0.00 0.37 0.00 98 1020.0
20260902083219 60 201 0.0 0.0 0.00 0.37 0.00 98 1020.1
20260902081718 60 201 0.0 0.9 0.00 0.37 0.00 98 1020.0
20260902080216 60 200 0.0 0.0 0.00 0.37 0.00 98 1020.1
20260902074718 60 196 0.0 0.0 0.00 0.37 0.00 98 1020.0
20260902073913 60 197 0.0 0.0 0.00 0.37 0.00 98 1020.2
20260902071717 60 197 0.0 0.0 0.00 0.37 0.00 98 1020.1
20260902070215 60 196 0.0 0.0 0.00 0.37 0.00 98 1020.0
20260902064714 61 197 0.0 0.0 0.00 0.37 0.00 97 1020.1
20260902063216 61 196 0.0 0.0 0.00 0.37 0.00 98 1020.2
20260902061715 61 196 0.0 0.0 0.00 0.37 0.00 98 1019.9
20260902060214 61 203 0.0 0.0 0.00 0.37 0.00 98 1019.6
20260902055418 62 203 0.0 0.0 0.00 0.37 0.00 98 1019.7
20260902053210 62 203 0.0 0.0 0.00 0.37 0.00 98 1019.6
20260902051711 62 197 0.0 0.0 0.00 0.37 0.00 98 1019.5
20260902050210 62 197 0.0 0.0 0.00 0.37 0.00 98 1019.4
20260902044708 62 197 0.0 0.0 0.00 0.37 0.00 98 1019.3
20260902043208 62 197 0.0 0.0 0.00 0.37 0.00 97 1019.2
20260902041706 62 197 0.0 0.0 0.00 0.37 0.00 97 1019.1
20260902040205 62 197 0.0 0.0 0.01 0.37 0.00 97 1019.0
20260902035353 62 189 0.0 1.7 0.01 0.37 0.37 97 1018.9
20260902033204 62 198 0.9 4.3 0.01 0.37 0.37 97 1018.7
20260902031701 62 198 0.0 0.0 0.01 0.37 0.37 98 1018.7
20260902030203 62 202 0.0 0.0 0.00 0.36 0.36 97 1018.8
20260902024701 62 202 0.0 0.0 0.00 0.36 0.36 97 1018.8
20260902023857 62 202 0.0 0.0 0.00 0.36 0.36 97 1018.7
20260902021702 62 202 0.0 2.6 0.00 0.36 0.36 97 1018.6
20260902020859 62 202 0.0 2.6 0.01 0.36 0.36 97 1018.6
20260902014659 62 197 0.0 3.5 0.02 0.36 0.36 97 1018.3
20260902013159 63 192 0.0 0.0 0.02 0.36 0.36 97 1018.4
20260902011658 63 190 0.0 0.0 0.03 0.36 0.36 97 1018.4
20260902010851 63 232 0.0 0.0 0.02 0.35 0.35 97 1018.4
20260902004659 63 232 0.0 0.0 0.01 0.34 0.34 97 1018.5
20260902003157 63 232 0.0 0.0 0.01 0.34 0.34 96 1018.4
20260902001653 63 232 0.0 0.0 0.00 0.33 0.33 97 1018.3
20260902001602 63 232 0.0 0.0 0.00 0.33 0.33 96 1018.1
20260901233152 64 232 0.0 0.0 0.00 0.33 0.33 96 1017.8
20260901231650 64 232 0.0 0.0 0.00 0.33 0.33 96 1017.7
20260901230149 64 232 0.0 0.0 0.00 0.33 0.33 95 1017.8
20260901224648 64 232 0.0 0.0 0.00 0.33 0.33 96 1017.8
20260901223146 65 232 0.0 0.0 0.00 0.33 0.33 95 1017.5
20260901222336 65 232 0.0 0.0 0.00 0.33 0.33 95 1017.5
20260901220144 65 232 0.0 0.0 0.00 0.33 0.33 95 1017.7
20260901214644 65 232 0.0 0.0 0.00 0.33 0.33 95 1017.5
20260901213849 65 232 0.0 0.0 0.00 0.33 0.33 94 1017.4
20260901211638 65 232 0.0 0.0 0.00 0.33 0.33 93 1017.3
20260901210136 65 232 0.0 0.0 0.00 0.33 0.33 94 1017.1
20260901204633 65 232 0.0 0.0 0.00 0.33 0.33 94 1017.2
20260901203132 65 232 0.0 0.0 0.00 0.33 0.33 92 1017.1
20260901201629 65 246 0.0 0.0 0.00 0.33 0.33 90 1017.0
20260901200127 65 248 0.0 0.0 0.01 0.33 0.33 93 1017.1
20260901194627 65 248 0.0 0.0 0.01 0.33 0.33 91 1017.2
20260901193128 65 248 0.0 0.0 0.01 0.33 0.33 90 1017.2
20260901191627 65 248 0.0 0.0 0.01 0.33 0.33 90 1017.1
20260901190126 65 248 0.0 0.0 0.00 0.32 0.32 90 1017.3
20260901184626 65 252 0.0 0.0 0.00 0.32 0.32 89 1017.4
20260901183123 64 252 0.0 0.0 0.00 0.32 0.32 89 1017.3
20260901181623 64 252 0.0 0.0 0.00 0.32 0.32 94 1017.4
20260901180816 63 329 0.0 0.0 0.00 0.32 0.32 95 1017.3